Погода в Фрайбургу

Бразилия     27°05′58″S   50°51′44″W
темп.,
°C
ветер,
м/с
пор.,
м/с
влажн.,
%
обл.,
%
осадки,
мм/ч
давл.,
гПа
погр.,
м
8 декабря, ср
ср800:00+12всв310853 0.0 1019687
03:00+10в289281 0.0 1018480
06:00+10всв278350 0.0 1019652
09:00+16всв24480 0.0 10191004
12:00+23вюв22300 0.0 10161618
15:00+24юв22270 0.0 10142129
18:00+20в26470 0.0 1014293
21:00+12всв210770 0.0 1017267
9 декабря, чт
чт900:00+10св149917 0.0 1018125
03:00+11св2589100 0.0 1017451
06:00+13всв1379100 0.0 1017597
09:00+19в12540 0.0 1017909
12:00+24ююв22320 0.0 10141951
15:00+26юв23273 0.0 10112616
18:00+21в374613 0.0 1012539
21:00+13всв29760 0.0 1015202
10 декабря, пт
пт1000:00+11всв139932 0.0 101592
03:00+11св129845 0.0 101467
06:00+11св11966 0.0 101545
09:00+21с12520 0.0 1013796
12:00+27з24300 0.0 10102096
15:00+29юз24240 0.0 10072702
18:00+24ю11450 0.0 100620
21:00+15в12745 0.0 100942
11 декабря, сб
сб1100:00+13св11946 0.0 100926
03:00+12с119912 0.0 100828
06:00+13ссв139945 0.0 1009103
09:00+24сз264740 0.0 1007693
12:00+29з3732100 0.0 10052956
15:00+23зюз2850100 0.0 1006323
18:00+22юз2951100 0.0 1007506
21:00+17с1173100 0.1 100814
12 декабря, вс
вс1200:00+17с1181100 0.3 100936
03:00+16ссз1185100 0.3 100823
06:00+16с1184100 0.1 100830
09:00+20в136999 0.3 1009127
12:00+26ю2445100 0.0 10071410
15:00+23юз2362100 0.0 1007496
18:00+21в1572100 0.1 1007237
21:00+19св158791 0.1 1009181